Regional Weather Roundup
Issued by NWS

Home | Current Version | Previous Version | Text Only | Print | Product List | Glossary On
Versions: 1 2 3 4 5 6 7 8 9 10 11 12 13 14 15 16 17 18 19 20 21 22 23 24 25 26 27 28 29 30 31 32 33 34 35 36 37 38 39 40 41 42 43 44 45 46 47 48
823
ASUS46 KSEW 130910
RWRWA

WASHINGTON REGIONAL WEATHER ROUNDUP
NATIONAL WEATHER SERVICE SEATTLE WA
100 AM PST SAT FEB 13 2016

NOTE:"FAIR" INDICATES FEW OR NO CLOUDS BELOW 12,000 FEET WITH NO
SIGNIFICANT WEATHER AND/OR OBSTRUCTIONS TO VISIBILITY.

WAZ505-507>509-131000-
SEATTLE, TACOMA, EVERETT, AND VICINITY

CITY           SKY/WX    TMP DP  RH WIND       PRES   REMARKS
EVERETT        LGT RAIN  47  41  80 S22G33    30.16S
BOEING FIELD   RAIN      46  45  96 S10G17    30.23R FOG
RENTON         HVY RAIN  47  41  80 SW8G22    30.23R
SEATAC AIRPORT HVY RAIN  43  40  89 W16G22    30.23R FOG
JBLM-MCCHORD   HVY RAIN  46  46 100 SW17G25   30.23R FOG
PUYALLUP       DRIZZLE   48  43  81 VRB3      30.22R
BREMERTON      CLOUDY    43  41  93 S12G22    30.22F
JBLM-FT LEWIS  LGT RAIN  46  46  99 MISG      30.22R
TACOMA NARROWS RAIN      44  41  89 SW8       30.23R FOG
$$

WAZ001-503-506-510-514-515-131000-
NORTH INTERIOR

CITY           SKY/WX    TMP DP  RH WIND       PRES   REMARKS
BELLINGHAM     RAIN      48  45  89 S3        30.14R FOG
FRIDAY HARBOR  LGT RAIN  44  42  93 CALM      30.15F FOG
EASTSOUND      RAIN      46  45  93 S3        30.13S
PORT ANGELES   LGT RAIN  45  40  82 W7        30.14S
EDIZ HOOK      LGT RAIN  45  42  90 W6        30.14R
PORT TOWNSEND  CLOUDY    46  43  87 CALM      30.13F
NAS WHIDBEY    LGT RAIN  45  44  97 NW16G26   30.18R FOG
ARLINGTON      CLOUDY    48  39  71 SE14G20   30.18F
BURLINGTON     CLOUDY    48  45  87 SE7G13    30.14S
$$

WAZ020-022-039-040-504-511-512-131000-
SOUTHWEST INTERIOR

CITY           SKY/WX    TMP DP  RH WIND       PRES   REMARKS
SHELTON        CLOUDY    43  40  89 S7        30.18F
OLYMPIA        LGT RAIN  45  42  89 S7        30.22R
CHEHALIS       MOCLDY    45  45 100 CALM      30.24R
KELSO          CLOUDY    46  41  81 SE8       30.30R
VANCOUVER      MOCLDY    48  42  80 S5        30.29S
SCAPPOOSE, OR  MOCLDY    41  39  93 VRB5      30.28R
PORTLAND, OR   MOCLDY    47  43  86 S9        30.30R
$$

WAZ021-516-517-131000-
WASHINGTON COAST

CITY           SKY/WX    TMP DP  RH WIND       PRES   REMARKS
FORKS          CLOUDY    47  43  86 SW10G20   30.15R
HOQUIAM        CLOUDY    48  45  89 S14       30.21S
ASTORIA, OR    CLOUDY    51  47  86 SW15G23   30.25R
$$

WAZ019-023-024-040-518-519-131000-
CASCADE MOUNTAINS AND COLUMBIA GORGE

CITY           SKY/WX    TMP DP  RH WIND       PRES   REMARKS
STAMPEDE PASS  NOT AVBL
TROUTDALE, OR  PTCLDY    48  44  86 S3        30.31R
THE DALLES, OR MOCLDY    45  40  82 NW5       30.26R
$$

WAZ026-027-041>044-520-521-131000-
EAST SLOPES

CITY           SKY/WX    TMP DP  RH WIND       PRES   REMARKS
OMAK           FOG       35  33  92 CALM      30.12S VSB 1
WENATCHEE      FOG       36  35  96 NW5       30.13S VSB 1/4
ELLENSBURG     FOG       31  29  92 E3        30.15S VSB 1/4
YAKIMA         CLOUDY    41  37  86 CALM      30.19R FOG
$$

WAZ028-034-035-131000-
COLUMBIA BASIN

CITY           SKY/WX    TMP DP  RH WIND       PRES   REMARKS
EPHRATA        FOG       36  36 100 CALM      30.12S VSB 1/4
MOSES LAKE     MOCLDY    39  38  96 NW3       30.14R FOG
PASCO          CLEAR     46  40  79 SW14      30.19R
HERMISTON, OR  CLOUDY    47  41  80 SW7       30.20S
$$

WAZ036>038-131000-
NORTHEAST WASHINGTON

CITY           SKY/WX    TMP DP  RH WIND       PRES   REMARKS
SPOKANE GEIGER CLOUDY    42  40  92 SW22      30.08S
SPOKANE FELTS  CLOUDY    45  40  82 SW12      30.11S
FAIRCHILD AFB  CLOUDY    41  41 100 SW21G28   30.08S
COEURDALENE,ID CLOUDY    43  39  87 SW7       30.08S
DEER PARK      CLOUDY    39  37  92 CALM      30.10F
$$

WAZ029>033-131000-
SOUTHEAST WASHINGTON

CITY           SKY/WX    TMP DP  RH WIND       PRES   REMARKS
PULLMAN        CLOUDY    42  37  82 W5        30.15S
LEWISTON, ID   CLOUDY    47  42  83 SW5       30.15F
WALLA WALLA    MOCLDY    47  39  74 SW14      30.19R
PENDLETON, OR  CLOUDY    43  39  86 S7        30.20S
$$




USA.gov is the U.S. government's official web portal to all federal, state and local government web resources and services.